When you browse on this site, cookies collect data to enhance your experience and personalize the content and advertising you see.
Visit our Privacy Policy to learn more. By continuing to use the site, you agree to this use of cookies and data.
  • In Hungary
  • List of Countries
  • For 7 days
  • Water Temperature
  • Satellite Maps
  • Weather Map
  • News
  • Weather Widgets
  • user-avatar
    Login

    Hourly Weather Sacharewo

    Today, 25 May, Saturday

    Time Temperature Precipitation Wind Pressure Humidity
    00:00 +14°C° 0 mm 1 mps 742 mmHg 92%
    01:00 +13°C° 0 mm 1 mps 742 mmHg 93%
    02:00 +13°C° 0 mm 1 mps 742 mmHg 93%
    03:00 +13°C° 0 mm 1 mps 742 mmHg 93%
    04:00 +12°C° 0 mm 1 mps 742 mmHg 92%
    05:00 +12°C° 0 mm 1 mps 742 mmHg 92%
    06:00 +14°C° 0 mm 1 mps 742 mmHg 85%
    07:00 +16°C° 0 mm 1 mps 742 mmHg 79%
    08:00 +18°C° 0 mm 2 mps 742 mmHg 72%
    09:00 +19°C° 0.2 mm 2 mps 742 mmHg 68%
    10:00 +20°C° 0.2 mm 3 mps 742 mmHg 65%
    11:00 +21°C° 0.2 mm 3 mps 742 mmHg 61%
    12:00 +21°C° 0 mm 4 mps 742 mmHg 57%
    13:00 +22°C° 0 mm 4 mps 742 mmHg 54%
    14:00 +22°C° 0 mm 5 mps 742 mmHg 51%
    15:00 +22°C° 0 mm 5 mps 742 mmHg 53%
    16:00 +22°C° 0 mm 5 mps 742 mmHg 54%
    17:00 +22°C° 0 mm 5 mps 741 mmHg 56%
    18:00 +20°C° 0.1 mm 4 mps 741 mmHg 65%
    19:00 +18°C° 0.1 mm 3 mps 742 mmHg 73%
    20:00 +17°C° 0.1 mm 2 mps 742 mmHg 82%
    21:00 +15°C° 0 mm 2 mps 742 mmHg 86%
    22:00 +14°C° 0 mm 2 mps 742 mmHg 89%
    23:00 +13°C° 0 mm 2 mps 742 mmHg 93%

    Tomorrow, 26 May, Sunday

    Time Temperature Precipitation Wind Pressure Humidity
    00:00 +12°C° 0 mm 2 mps 743 mmHg 91%
    01:00 +11°C° 0 mm 1 mps 743 mmHg 90%
    02:00 +11°C° 0 mm 1 mps 743 mmHg 89%
    03:00 +11°C° 0 mm 1 mps 743 mmHg 89%
    04:00 +11°C° 0 mm 1 mps 743 mmHg 89%
    05:00 +10°C° 0 mm 1 mps 743 mmHg 90%
    06:00 +12°C° 0 mm 2 mps 743 mmHg 84%
    07:00 +12°C° 0 mm 3 mps 743 mmHg 79%
    08:00 +14°C° 0 mm 4 mps 743 mmHg 74%
    09:00 +15°C° 0 mm 4 mps 743 mmHg 69%
    10:00 +16°C° 0 mm 5 mps 743 mmHg 65%
    11:00 +17°C° 0 mm 5 mps 743 mmHg 60%
    12:00 +17°C° 0 mm 5 mps 743 mmHg 58%
    13:00 +19°C° 0 mm 5 mps 743 mmHg 56%
    14:00 +20°C° 0 mm 5 mps 742 mmHg 54%
    15:00 +20°C° 0 mm 5 mps 742 mmHg 55%
    16:00 +19°C° 0 mm 5 mps 742 mmHg 56%
    17:00 +19°C° 0 mm 5 mps 742 mmHg 57%
    18:00 +18°C° 0 mm 4 mps 742 mmHg 63%
    19:00 +17°C° 0 mm 3 mps 742 mmHg 69%
    20:00 +16°C° 0 mm 2 mps 742 mmHg 75%
    21:00 +15°C° 0 mm 2 mps 742 mmHg 79%
    22:00 +14°C° 0 mm 2 mps 742 mmHg 82%
    23:00 +13°C° 0 mm 2 mps 742 mmHg 85%

    Day after tomorrow, 27 May, Monday

    Time Temperature Precipitation Wind Pressure Humidity
    00:00 +12°C° 0 mm 3 mps 742 mmHg 84%
    01:00 +12°C° 0 mm 3 mps 742 mmHg 83%
    02:00 +12°C° 0 mm 3 mps 742 mmHg 82%
    03:00 +12°C° 0 mm 3 mps 742 mmHg 84%
    04:00 +12°C° 0 mm 3 mps 742 mmHg 85%
    05:00 +12°C° 0 mm 3 mps 742 mmHg 87%
    06:00 +14°C° 0 mm 3 mps 742 mmHg 82%
    07:00 +15°C° 0 mm 4 mps 742 mmHg 77%
    08:00 +18°C° 0 mm 4 mps 742 mmHg 72%
    09:00 +20°C° 0 mm 5 mps 742 mmHg 67%
    10:00 +21°C° 0 mm 5 mps 742 mmHg 62%
    11:00 +23°C° 0 mm 6 mps 742 mmHg 57%
    12:00 +23°C° 0.1 mm 6 mps 742 mmHg 55%
    13:00 +24°C° 0.1 mm 6 mps 742 mmHg 53%
    14:00 +26°C° 0.1 mm 6 mps 742 mmHg 51%
    15:00 +24°C° 0 mm 6 mps 741 mmHg 54%
    16:00 +25°C° 0 mm 5 mps 741 mmHg 57%
    17:00 +25°C° 0 mm 5 mps 741 mmHg 60%
    18:00 +22°C° 0.1 mm 5 mps 741 mmHg 67%
    19:00 +21°C° 0.1 mm 4 mps 741 mmHg 74%
    20:00 +20°C° 0.1 mm 3 mps 741 mmHg 81%
    21:00 +19°C° 0.1 mm 3 mps 741 mmHg 84%
    22:00 +18°C° 0.1 mm 3 mps 741 mmHg 88%
    23:00 +17°C° 0.1 mm 3 mps 741 mmHg 91%

    28 May, Tuesday

    Time Temperature Precipitation Wind Pressure Humidity
    00:00 +17°C° 0 mm 3 mps 741 mmHg 92%
    01:00 +17°C° 0 mm 2 mps 741 mmHg 93%
    02:00 +16°C° 0 mm 2 mps 741 mmHg 94%
    03:00 +16°C° 0 mm 2 mps 741 mmHg 94%
    04:00 +16°C° 0 mm 1 mps 741 mmHg 94%
    05:00 +16°C° 0 mm 1 mps 741 mmHg 94%
    06:00 +18°C° 1.3 mm 1 mps 741 mmHg 94%
    07:00 +18°C° 1.3 mm 1 mps 741 mmHg 95%
    08:00 +18°C° 1.3 mm 1 mps 741 mmHg 95%
    09:00 +18°C° 1.8 mm 1 mps 741 mmHg 95%
    10:00 +18°C° 1.8 mm 1 mps 741 mmHg 96%
    11:00 +18°C° 1.8 mm 1 mps 740 mmHg 96%
    12:00 +20°C° 0.3 mm 1 mps 740 mmHg 90%
    13:00 +21°C° 0.3 mm 1 mps 740 mmHg 83%
    14:00 +23°C° 0.3 mm 2 mps 740 mmHg 77%
    15:00 +23°C° 0.1 mm 1 mps 740 mmHg 77%
    16:00 +23°C° 0.1 mm 1 mps 740 mmHg 78%
    17:00 +23°C° 0.1 mm 1 mps 739 mmHg 78%
    18:00 +21°C° 2.1 mm 2 mps 739 mmHg 83%
    19:00 +20°C° 2.1 mm 2 mps 739 mmHg 88%
    20:00 +19°C° 2.1 mm 2 mps 739 mmHg 93%
    21:00 +18°C° 0.4 mm 2 mps 739 mmHg 94%
    22:00 +18°C° 0.4 mm 2 mps 739 mmHg 95%
    23:00 +17°C° 0.4 mm 2 mps 738 mmHg 96%

    29 May, Wednesday

    Time Temperature Precipitation Wind Pressure Humidity
    00:00 +17°C° 1.6 mm 2 mps 738 mmHg 96%
    01:00 +18°C° 1.6 mm 1 mps 738 mmHg 97%
    02:00 +18°C° 1.6 mm 1 mps 738 mmHg 97%
    03:00 +18°C° 0.3 mm 1 mps 739 mmHg 97%
    04:00 +16°C° 0.3 mm 1 mps 739 mmHg 98%
    05:00 +16°C° 0.3 mm 2 mps 739 mmHg 98%
    06:00 +16°C° 0.6 mm 3 mps 739 mmHg 97%
    07:00 +16°C° 0.6 mm 3 mps 740 mmHg 95%
    08:00 +15°C° 0.6 mm 4 mps 740 mmHg 94%
    09:00 +15°C° 0.1 mm 4 mps 741 mmHg 93%
    10:00 +14°C° 0.1 mm 4 mps 742 mmHg 92%
    11:00 +14°C° 0.1 mm 5 mps 742 mmHg 91%
    12:00 +13°C° 0.1 mm 5 mps 743 mmHg 90%
    13:00 +13°C° 0.1 mm 5 mps 744 mmHg 88%
    14:00 +11°C° 0.1 mm 6 mps 744 mmHg 87%
    15:00 +12°C° 0 mm 5 mps 745 mmHg 84%
    16:00 +13°C° 0 mm 4 mps 745 mmHg 81%
    17:00 +13°C° 0 mm 3 mps 746 mmHg 78%
    18:00 +13°C° 0 mm 4 mps 747 mmHg 78%
    19:00 +13°C° 0 mm 4 mps 747 mmHg 77%
    20:00 +13°C° 0 mm 4 mps 748 mmHg 77%
    21:00 +11°C° 0 mm 4 mps 748 mmHg 77%
    22:00 +10°C° 0 mm 4 mps 749 mmHg 77%
    23:00 +8°C° 0 mm 4 mps 750 mmHg 77%

    30 May, Thursday

    Time Temperature Precipitation Wind Pressure Humidity
    00:00 +8°C° 0 mm 3 mps 750 mmHg 78%
    01:00 +7°C° 0 mm 3 mps 750 mmHg 79%
    02:00 +4°C° 0 mm 3 mps 751 mmHg 80%
    03:00 +5°C° 0 mm 2 mps 751 mmHg 81%
    04:00 +5°C° 0 mm 2 mps 751 mmHg 81%
    05:00 +4°C° 0 mm 2 mps 752 mmHg 81%
    06:00 +6°C° 0 mm 2 mps 752 mmHg 74%
    07:00 +8°C° 0 mm 2 mps 752 mmHg 66%
    08:00 +10°C° 0 mm 2 mps 752 mmHg 58%
    09:00 +13°C° 0 mm 2 mps 752 mmHg 52%
    10:00 +15°C° 0 mm 2 mps 752 mmHg 46%
    11:00 +16°C° 0 mm 2 mps 752 mmHg 39%
    12:00 +17°C° 0 mm 2 mps 752 mmHg 38%
    13:00 +18°C° 0 mm 2 mps 752 mmHg 37%
    14:00 +20°C° 0 mm 1 mps 751 mmHg 35%
    15:00 +20°C° 0 mm 1 mps 751 mmHg 37%
    16:00 +20°C° 0 mm 1 mps 751 mmHg 38%
    17:00 +20°C° 0 mm 1 mps 750 mmHg 40%
    18:00 +18°C° 0 mm 1 mps 750 mmHg 46%
    19:00 +16°C° 0 mm 1 mps 750 mmHg 53%
    20:00 +15°C° 0 mm 1 mps 750 mmHg 59%
    21:00 +14°C° 0 mm 1 mps 750 mmHg 59%
    22:00 +14°C° 0 mm 1 mps 750 mmHg 59%
    23:00 +13°C° 0 mm 1 mps 750 mmHg 58%
    Show more